Time,TemperatureF,DewpointF,PressureIn,WindDirection,WindDirectionDegrees,WindSpeedMPH,WindSpeedGustMPH,Humidity,HourlyPrecipIn,Conditions,Clouds,dailyrainin,SoftwareType,DateUTC
2013-03-18 00:03:00,39.7,31.5,29.97,ESE,112,2.5,3.6,72,0.00,,---,0.00,VWS V14.01,2013-03-18 07:03:00,
2013-03-18 00:08:00,39.7,31.5,29.97,SSW,202,2.0,2.2,72,0.00,,---,0.00,VWS V14.01,2013-03-18 07:08:00,
2013-03-18 00:13:00,39.6,31.6,29.97,ESE,112,3.1,3.6,73,0.00,,---,0.00,VWS V14.01,2013-03-18 07:13:00,
2013-03-18 00:18:00,39.6,31.3,29.97,SSE,158,2.0,2.0,72,0.00,,---,0.00,VWS V14.01,2013-03-18 07:18:00,
2013-03-18 00:23:00,39.6,31.6,29.97,SSE,158,1.3,5.8,73,0.00,,---,0.00,VWS V14.01,2013-03-18 07:23:00,
2013-03-18 00:28:00,39.7,31.8,29.97,South,180,3.8,3.8,73,0.00,,---,0.00,VWS V14.01,2013-03-18 07:28:00,
2013-03-18 00:33:00,39.7,31.8,29.97,SE,135,2.2,3.4,73,0.00,,---,0.00,VWS V14.01,2013-03-18 07:33:00,
2013-03-18 00:38:00,39.7,31.8,29.97,South,180,1.6,3.1,73,0.00,,---,0.00,VWS V14.01,2013-03-18 07:38:00,
2013-03-18 00:43:00,39.7,31.8,29.97,ESE,112,3.1,3.1,73,0.00,,---,0.00,VWS V14.01,2013-03-18 07:43:00,
2013-03-18 00:48:00,39.7,32.1,29.97,ESE,112,9.8,9.8,74,0.00,,---,0.00,VWS V14.01,2013-03-18 07:48:00,
2013-03-18 00:53:00,39.7,32.1,29.97,ESE,112,2.9,3.4,74,0.00,,---,0.00,VWS V14.01,2013-03-18 07:53:00,
2013-03-18 00:58:00,39.7,32.1,29.97,West,270,1.3,2.5,74,0.00,,---,0.00,VWS V14.01,2013-03-18 07:58:00,
2013-03-18 01:03:00,39.7,32.1,29.94,East,90,4.9,4.9,74,0.00,,---,0.00,VWS V14.01,2013-03-18 08:03:00,
2013-03-18 01:08:00,39.7,32.1,29.94,SSW,202,2.0,3.6,74,0.00,,---,0.00,VWS V14.01,2013-03-18 08:08:00,
2013-03-18 01:13:00,39.7,32.1,29.94,SSE,158,3.8,3.8,74,0.00,,---,0.00,VWS V14.01,2013-03-18 08:13:00,
2013-03-18 01:18:00,39.7,32.1,29.94,SSW,202,2.5,3.4,74,0.00,,---,0.00,VWS V14.01,2013-03-18 08:18:00,
2013-03-18 01:23:00,39.7,32.1,29.94,South,180,4.0,4.0,74,0.00,,---,0.00,VWS V14.01,2013-03-18 08:23:00,
2013-03-18 01:28:00,39.7,31.8,29.94,SSW,202,6.3,6.3,73,0.00,,---,0.00,VWS V14.01,2013-03-18 08:28:00,
2013-03-18 01:33:00,39.9,32.0,29.94,SSE,158,2.5,10.5,73,0.00,,---,0.00,VWS V14.01,2013-03-18 08:33:00,
2013-03-18 01:38:00,39.9,31.6,29.94,SSE,158,1.6,3.4,72,0.00,,---,0.00,VWS V14.01,2013-03-18 08:38:00,
2013-03-18 01:43:00,39.9,32.0,29.94,South,180,4.9,4.9,73,0.00,,---,0.00,VWS V14.01,2013-03-18 08:43:00,
2013-03-18 01:48:00,39.9,32.0,29.94,ESE,112,2.7,7.6,73,0.00,,---,0.00,VWS V14.01,2013-03-18 08:48:00,
2013-03-18 01:53:00,39.9,32.0,29.94,SSW,202,3.4,4.9,73,0.00,,---,0.00,VWS V14.01,2013-03-18 08:53:00,
2013-03-18 01:58:00,39.9,31.6,29.94,ESE,112,3.4,3.8,72,0.00,,---,0.00,VWS V14.01,2013-03-18 08:58:00,
2013-03-18 02:03:00,39.9,32.0,29.94,SSE,158,2.5,4.9,73,0.00,,---,0.00,VWS V14.01,2013-03-18 09:03:00,
2013-03-18 02:08:00,39.9,32.0,29.94,SSE,158,3.8,3.8,73,0.00,,---,0.00,VWS V14.01,2013-03-18 09:08:00,
2013-03-18 02:13:00,39.9,32.0,29.94,South,180,3.1,6.0,73,0.00,,---,0.00,VWS V14.01,2013-03-18 09:13:00,
2013-03-18 02:18:00,39.9,32.0,29.94,SSE,158,5.8,6.3,73,0.00,,---,0.00,VWS V14.01,2013-03-18 09:18:00,
2013-03-18 02:23:00,40.1,31.8,29.94,SSW,202,3.6,5.8,72,0.00,,---,0.00,VWS V14.01,2013-03-18 09:23:00,
2013-03-18 02:28:00,40.1,31.8,29.94,ESE,112,3.8,3.8,72,0.00,,---,0.00,VWS V14.01,2013-03-18 09:28:00,
2013-03-18 02:33:00,40.1,31.8,29.94,SSE,158,2.7,6.7,72,0.00,,---,0.00,VWS V14.01,2013-03-18 09:33:00,
2013-03-18 02:38:00,40.3,32.0,29.94,South,180,3.4,4.9,72,0.00,,---,0.00,VWS V14.01,2013-03-18 09:38:00,
2013-03-18 02:43:00,40.1,31.8,29.94,SE,135,3.6,8.5,72,0.00,,---,0.00,VWS V14.01,2013-03-18 09:43:00,
2013-03-18 02:48:00,40.1,31.8,29.94,SE,135,4.9,6.3,72,0.00,,---,0.00,VWS V14.01,2013-03-18 09:48:00,
2013-03-18 02:53:00,39.9,31.6,29.94,SW,225,2.0,4.3,72,0.00,,---,0.00,VWS V14.01,2013-03-18 09:53:00,
2013-03-18 02:58:00,39.9,31.6,29.94,South,180,5.8,5.8,72,0.00,,---,0.00,VWS V14.01,2013-03-18 09:58:00,
2013-03-18 03:03:00,39.9,31.6,29.91,SSE,158,3.4,6.3,72,0.00,,---,0.00,VWS V14.01,2013-03-18 10:03:00,
2013-03-18 03:08:00,39.9,31.6,29.91,SSE,158,5.6,6.0,72,0.00,,---,0.00,VWS V14.01,2013-03-18 10:08:00,
2013-03-18 03:13:00,39.9,31.6,29.91,ESE,112,1.1,2.0,72,0.00,,---,0.00,VWS V14.01,2013-03-18 10:13:00,
2013-03-18 03:18:00,39.9,31.6,29.94,ESE,112,5.4,5.6,72,0.00,,---,0.00,VWS V14.01,2013-03-18 10:18:00,
2013-03-18 03:23:00,39.9,31.6,29.94,South,180,2.2,2.7,72,0.00,,---,0.00,VWS V14.01,2013-03-18 10:23:00,
2013-03-18 03:28:00,39.7,31.8,29.94,SSE,158,6.3,6.3,73,0.00,,---,0.00,VWS V14.01,2013-03-18 10:28:00,
2013-03-18 03:33:00,39.9,32.0,29.94,SSE,158,1.6,3.1,73,0.00,,---,0.00,VWS V14.01,2013-03-18 10:33:00,
2013-03-18 03:38:00,39.9,32.0,29.94,SSW,202,3.4,3.8,73,0.00,,---,0.00,VWS V14.01,2013-03-18 10:38:00,
2013-03-18 03:43:00,40.1,31.8,29.94,SSE,158,3.4,3.4,72,0.00,,---,0.00,VWS V14.01,2013-03-18 10:43:00,
2013-03-18 03:48:00,40.1,31.8,29.91,SSE,158,5.4,5.4,72,0.00,,---,0.00,VWS V14.01,2013-03-18 10:48:00,
2013-03-18 03:53:00,40.3,32.0,29.91,SSW,202,2.0,3.1,72,0.00,,---,0.00,VWS V14.01,2013-03-18 10:53:00,
2013-03-18 03:58:00,40.3,32.0,29.91,NE,45,2.9,2.9,72,0.00,,---,0.00,VWS V14.01,2013-03-18 10:58:00,
2013-03-18 04:03:00,40.3,32.0,29.91,SSW,202,3.1,4.9,72,0.00,,---,0.00,VWS V14.01,2013-03-18 11:03:00,
2013-03-18 04:08:00,40.3,32.0,29.91,ESE,112,2.2,2.9,72,0.00,,---,0.00,VWS V14.01,2013-03-18 11:08:00,
2013-03-18 04:13:00,40.3,32.0,29.91,SSE,158,2.2,3.4,72,0.00,,---,0.00,VWS V14.01,2013-03-18 11:13:00,
2013-03-18 04:18:00,40.1,31.8,29.91,SSW,202,3.8,4.0,72,0.00,,---,0.00,VWS V14.01,2013-03-18 11:18:00,
2013-03-18 04:23:00,40.3,32.0,29.91,SSE,158,8.5,8.5,72,0.00,,---,0.00,VWS V14.01,2013-03-18 11:23:00,
2013-03-18 04:28:00,40.3,32.0,29.91,ESE,112,5.6,6.3,72,0.00,,---,0.00,VWS V14.01,2013-03-18 11:28:00,
2013-03-18 04:33:00,40.3,31.6,29.88,SSE,158,3.1,3.1,71,0.00,,---,0.00,VWS V14.01,2013-03-18 11:33:00,
2013-03-18 04:38:00,40.5,31.8,29.88,SE,135,1.6,6.3,71,0.00,,---,0.00,VWS V14.01,2013-03-18 11:38:00,
2013-03-18 04:43:00,40.5,31.8,29.88,ESE,112,4.0,10.7,71,0.00,,---,0.00,VWS V14.01,2013-03-18 11:43:00,
2013-03-18 04:48:00,40.5,31.8,29.91,ESE,112,2.9,6.0,71,0.00,,---,0.00,VWS V14.01,2013-03-18 11:48:00,
2013-03-18 04:53:00,40.5,31.8,29.91,SE,135,3.1,4.3,71,0.00,,---,0.00,VWS V14.01,2013-03-18 11:53:00,
2013-03-18 04:58:00,40.5,31.8,29.91,ESE,112,2.7,3.4,71,0.00,,---,0.00,VWS V14.01,2013-03-18 11:58:00,
2013-03-18 05:03:00,40.5,31.8,29.91,SSE,158,2.7,4.7,71,0.00,,---,0.00,VWS V14.01,2013-03-18 12:03:00,
2013-03-18 05:08:00,40.6,32.0,29.91,East,90,4.3,4.3,71,0.00,,---,0.00,VWS V14.01,2013-03-18 12:08:00,
2013-03-18 05:13:00,40.6,31.6,29.91,South,180,6.5,6.5,70,0.00,,---,0.00,VWS V14.01,2013-03-18 12:13:00,
2013-03-18 05:18:00,40.8,31.8,29.91,ESE,112,3.4,3.4,70,0.00,,---,0.00,VWS V14.01,2013-03-18 12:18:00,
2013-03-18 05:23:00,40.8,31.8,29.91,ESE,112,6.3,6.3,70,0.00,,---,0.00,VWS V14.01,2013-03-18 12:23:00,
2013-03-18 05:28:00,40.8,31.8,29.91,ENE,68,2.0,2.5,70,0.00,,---,0.00,VWS V14.01,2013-03-18 12:28:00,
2013-03-18 05:33:00,40.8,31.8,29.91,South,180,2.9,4.9,70,0.00,,---,0.00,VWS V14.01,2013-03-18 12:33:00,
2013-03-18 05:38:00,40.8,31.8,29.91,ESE,112,7.8,7.8,70,0.00,,---,0.00,VWS V14.01,2013-03-18 12:38:00,
2013-03-18 05:43:00,40.8,32.2,29.91,SSE,158,1.6,1.6,71,0.00,,---,0.00,VWS V14.01,2013-03-18 12:43:00,
2013-03-18 05:48:00,40.6,32.0,29.91,ENE,68,1.1,3.4,71,0.00,,---,0.00,VWS V14.01,2013-03-18 12:48:00,
2013-03-18 05:53:00,40.6,32.0,29.91,ESE,112,2.5,5.4,71,0.00,,---,0.00,VWS V14.01,2013-03-18 12:53:00,
2013-03-18 05:58:00,40.6,32.0,29.91,ESE,112,3.4,3.4,71,0.00,,---,0.00,VWS V14.01,2013-03-18 12:58:00,
2013-03-18 06:03:00,40.6,32.0,29.91,South,180,3.4,3.4,71,0.00,,---,0.00,VWS V14.01,2013-03-18 13:03:00,
2013-03-18 06:08:00,40.6,32.0,29.91,South,180,8.7,8.7,71,0.00,,---,0.00,VWS V14.01,2013-03-18 13:08:00,
2013-03-18 06:13:00,40.6,32.0,29.91,SSE,158,5.8,9.6,71,0.00,,---,0.00,VWS V14.01,2013-03-18 13:13:00,
2013-03-18 06:18:00,40.6,32.0,29.91,SSE,158,4.0,4.0,71,0.00,,---,0.00,VWS V14.01,2013-03-18 13:18:00,
2013-03-18 06:23:00,40.8,32.2,29.91,ENE,68,2.7,2.7,71,0.00,,---,0.00,VWS V14.01,2013-03-18 13:23:00,
2013-03-18 06:28:00,40.8,32.2,29.91,South,180,10.5,10.5,71,0.00,,---,0.00,VWS V14.01,2013-03-18 13:28:00,
2013-03-18 06:33:00,40.8,32.5,29.91,SSE,158,5.8,5.8,72,0.00,,---,0.00,VWS V14.01,2013-03-18 13:33:00,
2013-03-18 06:38:00,40.8,32.5,29.91,ESE,112,3.1,4.9,72,0.00,,---,0.00,VWS V14.01,2013-03-18 13:38:00,
2013-03-18 06:43:00,40.8,32.5,29.91,NNE,22,2.0,2.9,72,0.00,,---,0.00,VWS V14.01,2013-03-18 13:43:00,
2013-03-18 06:48:00,40.8,32.5,29.88,ESE,112,2.2,5.4,72,0.00,,---,0.00,VWS V14.01,2013-03-18 13:48:00,
2013-03-18 06:53:00,40.6,32.7,29.88,SSE,158,1.3,4.9,73,0.00,,---,0.00,VWS V14.01,2013-03-18 13:53:00,
2013-03-18 06:58:00,40.6,32.7,29.88,SSE,158,0.0,2.5,73,0.00,,---,0.00,VWS V14.01,2013-03-18 13:58:00,
2013-03-18 07:03:00,40.6,32.7,29.91,WSW,248,4.0,4.0,73,0.00,,---,0.00,VWS V14.01,2013-03-18 14:03:00,
2013-03-18 07:08:00,40.6,32.7,29.91,ESE,112,3.6,3.6,73,0.00,,---,0.00,VWS V14.01,2013-03-18 14:08:00,
2013-03-18 07:13:00,40.6,33.0,29.91,North,0,1.6,1.6,74,0.00,,---,0.00,VWS V14.01,2013-03-18 14:13:00,
2013-03-18 07:18:00,40.6,33.0,29.91,SSE,158,3.6,3.6,74,0.00,,---,0.00,VWS V14.01,2013-03-18 14:18:00,
2013-03-18 07:23:00,40.6,33.0,29.91,NNE,22,2.7,2.7,74,0.00,,---,0.00,VWS V14.01,2013-03-18 14:23:00,
2013-03-18 07:28:00,40.6,33.0,29.91,WNW,292,2.5,2.5,74,0.00,,---,0.00,VWS V14.01,2013-03-18 14:28:00,
2013-03-18 07:33:00,40.8,33.2,29.91,SSE,158,2.7,2.7,74,0.00,,---,0.00,VWS V14.01,2013-03-18 14:33:00,
2013-03-18 07:38:00,40.8,33.2,29.91,SSW,202,2.7,4.7,74,0.00,,---,0.00,VWS V14.01,2013-03-18 14:38:00,
2013-03-18 07:43:00,40.8,33.2,29.91,WNW,292,2.0,2.0,74,0.00,,---,0.00,VWS V14.01,2013-03-18 14:43:00,
2013-03-18 07:48:00,40.8,33.2,29.91,SSW,202,1.6,3.4,74,0.00,,---,0.00,VWS V14.01,2013-03-18 14:48:00,
2013-03-18 07:53:00,40.8,33.5,29.91,ESE,112,1.6,3.4,75,0.00,,---,0.00,VWS V14.01,2013-03-18 14:53:00,
2013-03-18 07:58:00,41.0,33.4,29.91,SSW,202,3.4,4.9,74,0.00,,---,0.00,VWS V14.01,2013-03-18 14:58:00,
2013-03-18 08:03:00,41.0,33.4,29.94,SSE,158,2.0,2.5,74,0.00,,---,0.00,VWS V14.01,2013-03-18 15:03:00,
2013-03-18 08:08:00,41.0,33.4,29.94,SSE,158,1.6,1.6,74,0.00,,---,0.00,VWS V14.01,2013-03-18 15:08:00,
2013-03-18 08:13:00,41.2,33.5,29.94,ENE,68,2.7,2.7,74,0.00,,---,0.00,VWS V14.01,2013-03-18 15:13:00,
2013-03-18 08:18:00,41.2,33.5,29.94,SSW,202,1.1,1.6,74,0.00,,---,0.00,VWS V14.01,2013-03-18 15:18:00,
2013-03-18 08:23:00,41.4,33.7,29.94,SSE,158,1.6,1.6,74,0.00,,---,0.00,VWS V14.01,2013-03-18 15:23:00,
2013-03-18 08:28:00,41.4,33.7,29.94,SSE,158,1.3,1.6,74,0.00,,---,0.00,VWS V14.01,2013-03-18 15:28:00,
2013-03-18 08:33:00,41.2,33.5,29.94,WSW,248,0.9,1.6,74,0.00,,---,0.00,VWS V14.01,2013-03-18 15:33:00,
2013-03-18 08:38:00,41.2,33.5,29.94,WNW,292,1.3,1.3,74,0.00,,---,0.00,VWS V14.01,2013-03-18 15:38:00,
2013-03-18 08:43:00,41.2,33.9,29.94,SSW,202,2.9,3.1,75,0.00,,---,0.00,VWS V14.01,2013-03-18 15:43:00,
2013-03-18 08:48:00,41.2,33.9,29.94,ESE,112,1.1,1.3,75,0.00,,---,0.00,VWS V14.01,2013-03-18 15:48:00,
2013-03-18 08:53:00,41.2,33.9,29.94,ESE,112,1.1,2.2,75,0.00,,---,0.00,VWS V14.01,2013-03-18 15:53:00,
2013-03-18 08:58:00,41.2,33.9,29.94,ESE,112,2.0,2.0,75,0.00,,---,0.00,VWS V14.01,2013-03-18 15:58:00,
2013-03-18 09:03:00,41.2,33.9,29.94,SSE,158,2.0,2.0,75,0.00,,---,0.00,VWS V14.01,2013-03-18 16:03:00,
2013-03-18 09:08:00,41.4,34.0,29.94,ESE,112,1.3,1.3,75,0.00,,---,0.00,VWS V14.01,2013-03-18 16:08:00,
2013-03-18 09:13:00,41.4,34.4,29.94,ESE,112,1.1,1.1,76,0.00,,---,0.00,VWS V14.01,2013-03-18 16:13:00,
2013-03-18 09:18:00,41.5,34.5,29.94,ESE,112,2.0,2.7,76,0.00,,---,0.00,VWS V14.01,2013-03-18 16:18:00,
2013-03-18 09:23:00,41.5,34.5,29.94,SSE,158,3.8,3.8,76,0.00,,---,0.00,VWS V14.01,2013-03-18 16:23:00,
2013-03-18 09:28:00,41.5,34.5,29.94,SSW,202,2.0,2.0,76,0.00,,---,0.00,VWS V14.01,2013-03-18 16:28:00,
2013-03-18 09:33:00,41.5,34.5,29.97,ESE,112,1.3,2.9,76,0.00,,---,0.00,VWS V14.01,2013-03-18 16:33:00,
2013-03-18 09:38:00,41.5,34.5,29.97,WSW,248,1.6,1.6,76,0.00,,---,0.00,VWS V14.01,2013-03-18 16:38:00,
2013-03-18 09:43:00,41.7,34.7,29.97,SW,225,2.5,2.5,76,0.00,,---,0.00,VWS V14.01,2013-03-18 16:43:00,
2013-03-18 09:48:00,41.7,34.7,29.94,WSW,248,3.8,3.8,76,0.00,,---,0.00,VWS V14.01,2013-03-18 16:48:00,
2013-03-18 09:53:00,41.9,35.2,29.94,SSE,158,1.1,1.3,77,0.00,,---,0.00,VWS V14.01,2013-03-18 16:53:00,
2013-03-18 09:58:00,42.1,35.4,29.94,NNW,338,2.0,2.0,77,0.00,,---,0.00,VWS V14.01,2013-03-18 16:58:00,
2013-03-18 10:03:00,42.1,35.7,29.97,ENE,68,1.6,2.0,78,0.00,,---,0.00,VWS V14.01,2013-03-18 17:03:00,
2013-03-18 10:08:00,42.3,36.2,29.97,SSE,158,1.3,2.9,79,0.00,,---,0.00,VWS V14.01,2013-03-18 17:08:00,
2013-03-18 10:13:00,42.3,36.2,29.97,NNE,22,2.5,2.5,79,0.00,,---,0.00,VWS V14.01,2013-03-18 17:13:00,
2013-03-18 10:18:00,42.3,36.2,29.97,SSW,202,1.3,2.0,79,0.00,,---,0.00,VWS V14.01,2013-03-18 17:18:00,
2013-03-18 10:23:00,42.3,36.5,29.97,East,90,1.1,2.0,80,0.00,,---,0.00,VWS V14.01,2013-03-18 17:23:00,
2013-03-18 10:28:00,42.4,37.0,29.97,South,180,4.0,4.0,81,0.00,,---,0.00,VWS V14.01,2013-03-18 17:28:00,
2013-03-18 10:33:00,42.6,37.2,29.97,ESE,112,1.1,1.1,81,0.00,,---,0.00,VWS V14.01,2013-03-18 17:33:00,
2013-03-18 10:38:00,42.4,37.3,29.97,ESE,112,1.1,2.2,82,0.00,,---,0.00,VWS V14.01,2013-03-18 17:38:00,
2013-03-18 10:43:00,42.4,37.3,29.97,ESE,112,0.0,0.0,82,0.00,,---,0.00,VWS V14.01,2013-03-18 17:43:00,
2013-03-18 10:48:00,43.0,38.2,29.97,ESE,112,2.2,2.2,83,0.00,,---,0.00,VWS V14.01,2013-03-18 17:48:00,
2013-03-18 10:53:00,43.9,39.1,29.97,ENE,68,1.1,1.3,83,0.00,,---,0.00,VWS V14.01,2013-03-18 17:53:00,
2013-03-18 10:58:00,45.0,39.8,29.97,SSW,202,4.9,4.9,82,0.00,,---,0.00,VWS V14.01,2013-03-18 17:58:00,
2013-03-18 11:03:00,45.9,39.4,29.97,NNE,22,0.0,1.1,78,0.00,,---,0.00,VWS V14.01,2013-03-18 18:03:00,
2013-03-18 11:08:00,46.6,39.4,29.97,SSE,158,3.4,3.4,76,0.00,,---,0.00,VWS V14.01,2013-03-18 18:08:00,
2013-03-18 11:13:00,47.1,38.6,29.97,SSE,158,3.4,3.4,72,0.00,,---,0.00,VWS V14.01,2013-03-18 18:13:00,
2013-03-18 11:18:00,47.7,38.0,29.97,NNW,338,2.7,4.9,69,0.00,,---,0.00,VWS V14.01,2013-03-18 18:18:00,
2013-03-18 11:23:00,48.0,38.3,29.97,NNW,338,1.6,1.6,69,0.00,,---,0.00,VWS V14.01,2013-03-18 18:23:00,
2013-03-18 11:28:00,47.8,36.7,29.97,SE,135,2.2,2.2,65,0.00,,---,0.00,VWS V14.01,2013-03-18 18:28:00,
2013-03-18 11:33:00,48.2,37.0,29.97,WSW,248,2.5,2.5,65,0.00,,---,0.00,VWS V14.01,2013-03-18 18:33:00,
2013-03-18 11:38:00,48.4,36.4,29.97,East,90,3.1,3.1,63,0.00,,---,0.00,VWS V14.01,2013-03-18 18:38:00,
2013-03-18 11:43:00,49.1,37.1,29.97,ESE,112,2.9,2.9,63,0.00,,---,0.00,VWS V14.01,2013-03-18 18:43:00,
2013-03-18 11:48:00,49.6,36.3,29.97,SE,135,2.0,2.0,60,0.00,,---,0.00,VWS V14.01,2013-03-18 18:48:00,
2013-03-18 11:53:00,50.2,36.4,29.97,SSW,202,2.0,2.0,59,0.00,,---,0.00,VWS V14.01,2013-03-18 18:53:00,
2013-03-18 11:58:00,49.8,35.7,29.97,ESE,112,3.8,3.8,58,0.00,,---,0.00,VWS V14.01,2013-03-18 18:58:00,
2013-03-18 12:03:00,48.2,33.7,29.97,West,270,1.1,1.1,57,0.00,,---,0.00,VWS V14.01,2013-03-18 19:03:00,
2013-03-18 12:08:00,47.5,33.9,29.97,SSE,158,1.3,1.3,59,0.00,,---,0.00,VWS V14.01,2013-03-18 19:08:00,
2013-03-18 12:13:00,47.5,34.7,29.97,SSE,158,2.7,3.6,61,0.00,,---,0.00,VWS V14.01,2013-03-18 19:13:00,
2013-03-18 12:18:00,47.8,35.1,29.97,SE,135,1.3,3.1,61,0.00,,---,0.00,VWS V14.01,2013-03-18 19:18:00,
2013-03-18 12:23:00,48.9,36.1,29.94,WSW,248,0.0,0.0,61,0.00,,---,0.00,VWS V14.01,2013-03-18 19:23:00,
2013-03-18 12:28:00,50.0,36.2,29.94,SSE,158,2.9,2.9,59,0.00,,---,0.00,VWS V14.01,2013-03-18 19:28:00,
2013-03-18 12:33:00,50.9,36.2,29.94,WSW,248,2.7,3.1,57,0.00,,---,0.00,VWS V14.01,2013-03-18 19:33:00,
2013-03-18 12:38:00,51.4,35.8,29.97,North,0,2.5,2.9,55,0.00,,---,0.00,VWS V14.01,2013-03-18 19:38:00,
2013-03-18 12:43:00,51.8,35.2,29.97,NW,315,2.9,2.9,53,0.00,,---,0.00,VWS V14.01,2013-03-18 19:43:00,
2013-03-18 12:48:00,52.2,35.1,29.97,WSW,248,1.3,2.5,52,0.00,,---,0.00,VWS V14.01,2013-03-18 19:48:00,
2013-03-18 12:53:00,53.1,35.9,29.97,SE,135,1.3,2.0,52,0.00,,---,0.00,VWS V14.01,2013-03-18 19:53:00,
2013-03-18 12:58:00,53.6,34.9,29.97,WNW,292,2.2,3.6,49,0.00,,---,0.00,VWS V14.01,2013-03-18 19:58:00,
2013-03-18 13:03:00,53.8,35.1,29.97,SSW,202,2.2,3.4,49,0.00,,---,0.00,VWS V14.01,2013-03-18 20:03:00,
2013-03-18 13:08:00,54.0,34.7,29.97,ESE,112,2.7,2.7,48,0.00,,---,0.00,VWS V14.01,2013-03-18 20:08:00,
2013-03-18 13:13:00,54.5,34.7,29.97,North,0,1.3,1.3,47,0.00,,---,0.00,VWS V14.01,2013-03-18 20:13:00,
2013-03-18 13:18:00,53.1,33.4,29.97,WNW,292,2.0,2.9,47,0.00,,---,0.00,VWS V14.01,2013-03-18 20:18:00,
2013-03-18 13:22:00,52.0,32.9,29.97,SSE,158,1.1,2.0,48,0.00,,---,0.00,VWS V14.01,2013-03-18 20:22:00,
2013-03-18 13:27:00,52.9,34.3,29.97,ESE,112,1.3,1.3,49,0.00,,---,0.00,VWS V14.01,2013-03-18 20:27:00,
2013-03-18 13:32:00,52.2,32.6,29.97,SE,135,2.5,2.5,47,0.00,,---,0.00,VWS V14.01,2013-03-18 20:32:00,
2013-03-18 13:37:00,52.7,33.0,29.97,SW,225,1.1,2.2,47,0.00,,---,0.00,VWS V14.01,2013-03-18 20:37:00,
2013-03-18 13:42:00,54.1,34.4,29.97,WSW,248,1.6,1.6,47,0.00,,---,0.00,VWS V14.01,2013-03-18 20:42:00,
2013-03-18 13:47:00,53.1,31.7,29.97,SSW,202,2.9,3.4,44,0.00,,---,0.00,VWS V14.01,2013-03-18 20:47:00,
2013-03-18 13:52:00,52.3,31.6,29.97,SSW,202,1.3,1.6,45,0.00,,---,0.00,VWS V14.01,2013-03-18 20:52:00,
2013-03-18 13:57:00,52.9,32.7,29.97,SSW,202,2.9,5.8,46,0.00,,---,0.00,VWS V14.01,2013-03-18 20:57:00,
2013-03-18 14:02:00,53.4,31.5,29.97,SSW,202,4.0,4.0,43,0.00,,---,0.00,VWS V14.01,2013-03-18 21:02:00,
2013-03-18 14:07:00,52.9,31.0,29.97,SW,225,1.3,1.6,43,0.00,,---,0.00,VWS V14.01,2013-03-18 21:07:00,
2013-03-18 14:12:00,52.5,31.2,29.97,WSW,248,2.0,2.7,44,0.00,,---,0.00,VWS V14.01,2013-03-18 21:12:00,
2013-03-18 14:17:00,52.3,31.1,29.97,SSE,158,2.2,2.2,44,0.00,,---,0.00,VWS V14.01,2013-03-18 21:17:00,
2013-03-18 14:22:00,53.4,31.5,29.94,NNE,22,2.0,3.4,43,0.00,,---,0.00,VWS V14.01,2013-03-18 21:22:00,
2013-03-18 14:27:00,54.5,31.9,29.94,SSE,158,1.3,3.8,42,0.00,,---,0.00,VWS V14.01,2013-03-18 21:27:00,
2013-03-18 14:32:00,55.0,31.8,29.94,ESE,112,2.7,3.4,41,0.00,,---,0.00,VWS V14.01,2013-03-18 21:32:00,
2013-03-18 14:37:00,55.2,32.0,29.97,SSW,202,3.4,4.0,41,0.00,,---,0.00,VWS V14.01,2013-03-18 21:37:00,
2013-03-18 14:42:00,54.7,30.9,29.97,WSW,248,2.2,3.8,40,0.00,,---,0.00,VWS V14.01,2013-03-18 21:42:00,
2013-03-18 14:47:00,54.5,30.7,29.97,SSE,158,2.2,2.9,40,0.00,,---,0.00,VWS V14.01,2013-03-18 21:47:00,
2013-03-18 14:52:00,53.8,30.0,29.94,SSE,158,2.2,2.2,40,0.00,,---,0.00,VWS V14.01,2013-03-18 21:52:00,
2013-03-18 14:57:00,53.4,30.3,29.94,SE,135,2.2,2.7,41,0.00,,---,0.00,VWS V14.01,2013-03-18 21:57:00,
2013-03-18 15:02:00,53.1,30.0,29.94,WSW,248,1.6,1.6,41,0.00,,---,0.00,VWS V14.01,2013-03-18 22:02:00,
2013-03-18 15:07:00,53.1,30.0,29.97,WNW,292,2.7,6.5,41,0.00,,---,0.00,VWS V14.01,2013-03-18 22:07:00,
2013-03-18 15:12:00,53.4,29.7,29.97,WSW,248,2.7,4.0,40,0.00,,---,0.00,VWS V14.01,2013-03-18 22:12:00,
2013-03-18 15:17:00,53.8,29.4,29.97,WSW,248,2.7,2.7,39,0.00,,---,0.00,VWS V14.01,2013-03-18 22:17:00,
2013-03-18 15:23:00,53.1,28.8,29.97,WSW,248,1.6,3.4,39,0.00,,---,0.00,VWS V14.01,2013-03-18 22:23:00,
2013-03-18 15:27:00,53.4,29.1,29.97,NNE,22,1.3,2.2,39,0.00,,---,0.00,VWS V14.01,2013-03-18 22:27:00,
2013-03-18 15:32:00,53.6,29.3,29.97,South,180,2.0,3.8,39,0.00,,---,0.00,VWS V14.01,2013-03-18 22:32:00,
2013-03-18 15:37:00,54.1,29.8,29.97,South,180,1.3,3.8,39,0.00,,---,0.00,VWS V14.01,2013-03-18 22:37:00,
2013-03-18 15:42:00,54.7,29.6,29.97,SW,225,3.6,3.6,38,0.00,,---,0.00,VWS V14.01,2013-03-18 22:42:00,
2013-03-18 15:47:00,54.3,28.6,29.97,SSW,202,4.3,4.3,37,0.00,,---,0.00,VWS V14.01,2013-03-18 22:47:00,
2013-03-18 15:52:00,54.1,28.5,29.97,WNW,292,2.7,2.9,37,0.00,,---,0.00,VWS V14.01,2013-03-18 22:52:00,
2013-03-18 15:57:00,52.0,30.8,29.97,North,0,4.0,6.3,44,0.00,,---,0.00,VWS V14.01,2013-03-18 22:57:00,
2013-03-18 16:02:00,51.6,31.0,29.97,SSE,158,2.0,2.2,45,0.00,,---,0.00,VWS V14.01,2013-03-18 23:02:00,
2013-03-18 16:07:00,51.6,31.0,29.97,SW,225,3.8,5.6,45,0.00,,---,0.00,VWS V14.01,2013-03-18 23:07:00,
2013-03-18 16:12:00,51.8,31.1,29.97,WSW,248,2.2,3.4,45,0.00,,---,0.00,VWS V14.01,2013-03-18 23:12:00,
2013-03-18 16:17:00,51.8,31.1,29.97,SSW,202,1.1,4.3,45,0.00,,---,0.00,VWS V14.01,2013-03-18 23:17:00,
2013-03-18 16:22:00,51.1,31.0,29.97,NNW,338,2.0,2.0,46,0.00,,---,0.00,VWS V14.01,2013-03-18 23:22:00,
2013-03-18 16:27:00,51.6,31.5,29.97,SSE,158,1.3,2.7,46,0.00,,---,0.00,VWS V14.01,2013-03-18 23:27:00,
2013-03-18 16:32:00,52.2,32.0,29.97,WNW,292,2.5,2.7,46,0.00,,---,0.00,VWS V14.01,2013-03-18 23:32:00,
2013-03-18 16:38:00,52.2,32.0,29.97,SSE,158,2.2,3.4,46,0.00,,---,0.00,VWS V14.01,2013-03-18 23:38:00,
2013-03-18 16:43:00,51.6,31.5,29.97,WSW,248,3.8,3.8,46,0.00,,---,0.00,VWS V14.01,2013-03-18 23:43:00,
2013-03-18 16:48:00,50.9,31.4,29.97,NW,315,1.6,1.6,47,0.00,,---,0.00,VWS V14.01,2013-03-18 23:48:00,
2013-03-18 16:53:00,50.4,30.9,29.97,WNW,292,2.7,2.7,47,0.00,,---,0.00,VWS V14.01,2013-03-18 23:53:00,
2013-03-18 16:58:00,50.2,30.8,29.97,SSW,202,1.6,2.0,47,0.00,,---,0.00,VWS V14.01,2013-03-18 23:58:00,
2013-03-18 17:03:00,50.4,31.4,29.97,SSW,202,0.0,2.5,48,0.00,,---,0.00,VWS V14.01,2013-03-19 00:03:00,
2013-03-18 17:07:00,50.0,31.1,30.00,NNE,22,1.3,2.5,48,0.00,,---,0.00,VWS V14.01,2013-03-19 00:07:00,
2013-03-18 17:12:00,49.3,31.0,30.00,SSE,158,3.6,3.6,49,0.00,,---,0.00,VWS V14.01,2013-03-19 00:12:00,
2013-03-18 17:17:00,48.9,30.6,30.00,WSW,248,1.6,1.6,49,0.00,,---,0.00,VWS V14.01,2013-03-19 00:17:00,
2013-03-18 17:22:00,48.6,30.3,30.00,South,180,2.0,2.2,49,0.00,,---,0.00,VWS V14.01,2013-03-19 00:22:00,
2013-03-18 17:27:00,48.6,30.3,30.00,SSW,202,0.9,1.3,49,0.00,,---,0.00,VWS V14.01,2013-03-19 00:27:00,
2013-03-18 17:32:00,48.4,30.6,30.00,WSW,248,0.9,1.3,50,0.00,,---,0.00,VWS V14.01,2013-03-19 00:32:00,
2013-03-18 17:37:00,48.2,30.5,30.00,NNE,22,1.6,2.2,50,0.00,,---,0.00,VWS V14.01,2013-03-19 00:37:00,
2013-03-18 17:42:00,48.0,30.3,30.00,WNW,292,0.0,0.0,50,0.00,,---,0.00,VWS V14.01,2013-03-19 00:42:00,
2013-03-18 17:47:00,47.8,30.1,30.00,South,180,1.6,1.6,50,0.00,,---,0.00,VWS V14.01,2013-03-19 00:47:00,
2013-03-18 17:52:00,47.8,30.6,30.00,ESE,112,0.0,0.0,51,0.00,,---,0.00,VWS V14.01,2013-03-19 00:52:00,
2013-03-18 17:57:00,47.8,30.6,30.00,SE,135,1.1,1.1,51,0.00,,---,0.00,VWS V14.01,2013-03-19 00:57:00,
2013-03-18 18:02:00,47.7,30.4,30.00,ESE,112,0.0,0.0,51,0.00,,---,0.00,VWS V14.01,2013-03-19 01:02:00,
2013-03-18 18:07:00,47.5,30.8,30.00,WSW,248,1.6,1.6,52,0.00,,---,0.00,VWS V14.01,2013-03-19 01:07:00,
2013-03-18 18:12:00,47.5,30.8,30.00,WSW,248,0.9,1.1,52,0.00,,---,0.00,VWS V14.01,2013-03-19 01:12:00,
2013-03-18 18:17:00,47.5,30.8,30.00,NNE,22,0.0,0.0,52,0.00,,---,0.00,VWS V14.01,2013-03-19 01:17:00,
2013-03-18 18:22:00,47.5,30.8,29.97,WSW,248,1.1,1.1,52,0.00,,---,0.00,VWS V14.01,2013-03-19 01:22:00,
2013-03-18 18:27:00,47.5,30.8,29.97,WNW,292,2.2,3.1,52,0.00,,---,0.00,VWS V14.01,2013-03-19 01:27:00,
2013-03-18 18:32:00,47.3,30.6,29.97,West,270,2.0,2.0,52,0.00,,---,0.00,VWS V14.01,2013-03-19 01:32:00,
2013-03-18 18:38:00,47.1,30.4,30.00,West,270,1.1,1.3,52,0.00,,---,0.00,VWS V14.01,2013-03-19 01:38:00,
2013-03-18 18:43:00,46.8,30.1,30.00,WNW,292,0.0,1.1,52,0.00,,---,0.00,VWS V14.01,2013-03-19 01:43:00,
2013-03-18 18:48:00,46.6,29.9,30.00,West,270,0.0,0.0,52,0.00,,---,0.00,VWS V14.01,2013-03-19 01:48:00,
2013-03-18 18:53:00,46.4,29.8,30.00,West,270,1.3,1.3,52,0.00,,---,0.00,VWS V14.01,2013-03-19 01:53:00,
2013-03-18 18:57:00,46.0,29.9,30.00,West,270,0.0,0.0,53,0.00,,---,0.00,VWS V14.01,2013-03-19 01:57:00,
2013-03-18 19:02:00,45.9,29.7,30.00,WSW,248,0.0,0.0,53,0.00,,---,0.00,VWS V14.01,2013-03-19 02:02:00,
2013-03-18 19:07:00,45.3,29.7,30.00,SSW,202,0.0,0.0,54,0.00,,---,0.00,VWS V14.01,2013-03-19 02:07:00,
2013-03-18 19:12:00,45.0,29.8,30.00,SSE,158,0.0,0.0,55,0.00,,---,0.00,VWS V14.01,2013-03-19 02:12:00,
2013-03-18 19:17:00,44.6,29.9,30.00,SSE,158,1.1,1.1,56,0.00,,---,0.00,VWS V14.01,2013-03-19 02:17:00,
2013-03-18 19:22:00,44.1,29.8,30.03,SSE,158,1.1,1.3,57,0.00,,---,0.00,VWS V14.01,2013-03-19 02:22:00,
2013-03-18 19:27:00,43.7,29.9,30.03,SE,135,1.1,1.3,58,0.00,,---,0.00,VWS V14.01,2013-03-19 02:27:00,
2013-03-18 19:32:00,43.3,29.6,30.03,SE,135,0.9,1.3,58,0.00,,---,0.00,VWS V14.01,2013-03-19 02:32:00,
2013-03-18 19:37:00,43.0,29.6,30.03,SE,135,1.6,2.0,59,0.00,,---,0.00,VWS V14.01,2013-03-19 02:37:00,
2013-03-18 19:42:00,42.6,29.7,30.03,SE,135,2.0,2.0,60,0.00,,---,0.00,VWS V14.01,2013-03-19 02:42:00,
2013-03-18 19:47:00,42.3,29.8,30.03,SE,135,1.3,2.0,61,0.00,,---,0.00,VWS V14.01,2013-03-19 02:47:00,
2013-03-18 19:52:00,42.1,30.0,30.00,South,180,0.0,2.2,62,0.00,,---,0.00,VWS V14.01,2013-03-19 02:52:00,
2013-03-18 19:57:00,41.7,30.1,30.00,SSE,158,0.0,0.0,63,0.00,,---,0.00,VWS V14.01,2013-03-19 02:57:00,
2013-03-18 20:02:00,41.4,29.7,30.00,SE,135,0.9,1.3,63,0.00,,---,0.00,VWS V14.01,2013-03-19 03:02:00,
2013-03-18 20:03:00,38.7,29.7,30.03,SE,135,0.0,1.1,70,0.00,,---,0.00,VWS V14.01,2013-03-19 03:03:00,
2013-03-18 20:04:00,38.7,29.7,30.03,SE,135,0.0,0.0,70,0.00,,---,0.00,VWS V14.01,2013-03-19 03:04:00,
2013-03-18 20:05:00,38.7,30.1,30.03,SE,135,0.0,0.0,71,0.00,,---,0.00,VWS V14.01,2013-03-19 03:05:00,
2013-03-18 20:06:00,38.7,30.1,30.03,SE,135,0.0,0.0,71,0.00,,---,0.00,VWS V14.01,2013-03-19 03:06:00,
2013-03-18 20:07:00,41.2,29.6,30.03,SE,135,1.3,1.6,63,0.00,,---,0.00,VWS V14.01,2013-03-19 03:07:00,
2013-03-18 20:08:00,38.5,29.9,30.03,SE,135,0.0,0.0,71,0.00,,---,0.00,VWS V14.01,2013-03-19 03:08:00,
2013-03-18 20:10:00,38.5,29.9,30.03,SE,135,0.0,1.3,71,0.00,,---,0.00,VWS V14.01,2013-03-19 03:10:00,
2013-03-18 20:12:00,41.0,29.8,30.03,SE,135,0.9,1.1,64,0.00,,---,0.00,VWS V14.01,2013-03-19 03:12:00,
2013-03-18 20:17:00,40.6,29.8,30.03,SSE,158,2.0,2.2,65,0.00,,---,0.00,VWS V14.01,2013-03-19 03:17:00,
2013-03-18 20:22:00,40.5,30.4,30.03,ESE,112,1.3,1.3,67,0.00,,---,0.00,VWS V14.01,2013-03-19 03:22:00,
2013-03-18 20:27:00,40.3,30.6,30.03,ESE,112,0.0,0.0,68,0.00,,---,0.00,VWS V14.01,2013-03-19 03:27:00,
2013-03-18 20:33:00,39.9,30.2,30.03,ESE,112,0.0,1.1,68,0.00,,---,0.00,VWS V14.01,2013-03-19 03:33:00,
2013-03-18 20:38:00,39.7,30.1,30.03,SE,135,0.0,0.0,68,0.00,,---,0.00,VWS V14.01,2013-03-19 03:38:00,
2013-03-18 20:43:00,39.4,30.1,30.03,SE,135,0.0,0.0,69,0.00,,---,0.00,VWS V14.01,2013-03-19 03:43:00,
2013-03-18 20:48:00,39.2,29.5,30.03,SE,135,0.0,0.0,68,0.00,,---,0.00,VWS V14.01,2013-03-19 03:48:00,
2013-03-18 20:53:00,39.0,30.1,30.03,SE,135,0.0,0.0,70,0.00,,---,0.00,VWS V14.01,2013-03-19 03:53:00,
2013-03-18 20:58:00,38.8,29.9,30.03,ESE,112,0.9,0.9,70,0.00,,---,0.00,VWS V14.01,2013-03-19 03:58:00,
2013-03-18 21:03:00,38.5,29.9,30.03,SE,135,0.0,0.0,71,0.00,,---,0.00,VWS V14.01,2013-03-19 04:03:00,
2013-03-18 21:08:00,38.3,29.7,30.03,SE,135,0.0,0.0,71,0.00,,---,0.00,VWS V14.01,2013-03-19 04:08:00,
2013-03-18 21:13:00,38.1,29.9,30.03,SE,135,0.0,0.0,72,0.00,,---,0.00,VWS V14.01,2013-03-19 04:13:00,
2013-03-18 21:18:00,37.9,29.7,30.03,SE,135,1.1,1.3,72,0.00,,---,0.00,VWS V14.01,2013-03-19 04:18:00,
2013-03-18 21:23:00,37.8,29.6,30.03,ESE,112,0.9,0.9,72,0.00,,---,0.00,VWS V14.01,2013-03-19 04:23:00,
2013-03-18 21:28:00,37.6,29.7,30.03,ESE,112,0.0,0.0,73,0.00,,---,0.00,VWS V14.01,2013-03-19 04:28:00,
2013-03-18 21:33:00,37.6,29.7,30.03,ESE,112,0.0,0.0,73,0.00,,---,0.00,VWS V14.01,2013-03-19 04:33:00,
2013-03-18 21:38:00,37.4,29.9,30.03,ESE,112,0.0,0.0,74,0.00,,---,0.00,VWS V14.01,2013-03-19 04:38:00,
2013-03-18 21:43:00,37.2,29.7,30.03,ESE,112,0.0,0.0,74,0.00,,---,0.00,VWS V14.01,2013-03-19 04:43:00,
2013-03-18 21:48:00,37.0,29.9,30.03,ESE,112,0.0,0.0,75,0.00,,---,0.00,VWS V14.01,2013-03-19 04:48:00,
2013-03-18 21:53:00,36.9,30.0,30.03,ESE,112,0.0,0.0,76,0.00,,---,0.00,VWS V14.01,2013-03-19 04:53:00,
2013-03-18 21:58:00,36.9,30.0,30.03,ESE,112,1.1,1.6,76,0.00,,---,0.00,VWS V14.01,2013-03-19 04:58:00,
2013-03-18 22:03:00,36.7,29.8,30.03,ESE,112,0.0,1.1,76,0.00,,---,0.00,VWS V14.01,2013-03-19 05:03:00,
2013-03-18 22:08:00,36.7,29.8,30.03,ESE,112,0.9,0.9,76,0.00,,---,0.00,VWS V14.01,2013-03-19 05:08:00,
2013-03-18 22:13:00,36.3,29.8,30.03,ESE,112,0.0,0.0,77,0.00,,---,0.00,VWS V14.01,2013-03-19 05:13:00,
2013-03-18 22:18:00,36.3,29.8,30.03,ESE,112,0.0,0.0,77,0.00,,---,0.00,VWS V14.01,2013-03-19 05:18:00,
2013-03-18 22:23:00,36.1,29.6,30.03,SE,135,1.6,1.6,77,0.00,,---,0.00,VWS V14.01,2013-03-19 05:23:00,
2013-03-18 22:28:00,36.1,30.0,30.03,SE,135,0.0,0.0,78,0.00,,---,0.00,VWS V14.01,2013-03-19 05:28:00,
2013-03-18 22:33:00,36.0,29.8,30.03,SE,135,0.0,0.0,78,0.00,,---,0.00,VWS V14.01,2013-03-19 05:33:00,
2013-03-18 22:38:00,35.8,29.6,30.03,SE,135,0.0,0.0,78,0.00,,---,0.00,VWS V14.01,2013-03-19 05:38:00,
2013-03-18 22:43:00,35.8,29.6,30.03,ESE,112,0.0,0.0,78,0.00,,---,0.00,VWS V14.01,2013-03-19 05:43:00,
2013-03-18 22:48:00,35.6,29.7,30.03,ESE,112,1.1,1.3,79,0.00,,---,0.00,VWS V14.01,2013-03-19 05:48:00,
2013-03-18 22:53:00,35.6,29.7,30.03,ESE,112,1.3,1.3,79,0.00,,---,0.00,VWS V14.01,2013-03-19 05:53:00,
2013-03-18 22:58:00,35.6,30.0,30.03,ESE,112,0.9,1.1,80,0.00,,---,0.00,VWS V14.01,2013-03-19 05:58:00,
2013-03-18 23:03:00,35.4,29.9,30.00,ESE,112,0.9,1.1,80,0.00,,---,0.00,VWS V14.01,2013-03-19 06:03:00,
2013-03-18 23:08:00,35.4,30.2,30.00,ESE,112,0.0,0.0,81,0.00,,---,0.00,VWS V14.01,2013-03-19 06:08:00,
2013-03-18 23:13:00,35.2,30.3,30.00,ESE,112,0.0,0.0,82,0.00,,---,0.00,VWS V14.01,2013-03-19 06:13:00,
2013-03-18 23:18:00,35.1,30.1,30.03,ESE,112,0.0,0.0,82,0.00,,---,0.00,VWS V14.01,2013-03-19 06:18:00,
2013-03-18 23:23:00,34.9,30.0,30.03,ESE,112,0.0,0.0,82,0.00,,---,0.00,VWS V14.01,2013-03-19 06:23:00,
2013-03-18 23:28:00,34.9,30.0,30.03,ESE,112,0.0,0.9,82,0.00,,---,0.00,VWS V14.01,2013-03-19 06:28:00,
2013-03-18 23:33:00,34.9,30.0,30.03,ESE,112,0.0,0.0,82,0.00,,---,0.00,VWS V14.01,2013-03-19 06:33:00,
2013-03-18 23:38:00,34.9,30.2,30.03,ESE,112,0.0,0.0,83,0.00,,---,0.00,VWS V14.01,2013-03-19 06:38:00,
2013-03-18 23:43:00,34.7,30.4,30.03,ESE,112,0.0,0.0,84,0.00,,---,0.00,VWS V14.01,2013-03-19 06:43:00,
2013-03-18 23:48:00,34.5,30.2,30.03,ESE,112,0.0,0.0,84,0.00,,---,0.00,VWS V14.01,2013-03-19 06:48:00,
2013-03-18 23:53:00,34.5,30.2,30.03,ESE,112,0.0,0.0,84,0.00,,---,0.00,VWS V14.01,2013-03-19 06:53:00,
2013-03-18 23:58:00,34.3,30.0,30.03,ESE,112,0.0,0.0,84,0.00,,---,0.00,VWS V14.01,2013-03-19 06:58:00,